This demonstration page uses our WeatherBlox Daily Observations layout. Learn more.

Hourly Observations for April 19, 2016

Temp ( °F °C ) Dew Point ( °F °C ) Humidity (%) Winds ( mph kmh ) Pressure ( in mb ) Visibility ( mi km ) Precip ( " mm )
12:15 am 00:15 Mostly Cloudy 44 6.8 42 5.8 93 93 Calm 30.27 1025 10 16.0934 0 0
12:35 am 00:35 Cloudy 43 6.2 42 5.4 95 95 Calm 30.27 1025 10 16.0934 0 0
12:55 am 00:55 Mostly Cloudy 44 6.5 42 5.5 93 93 Calm 30.27 1025 10 16.0934 0 0
1:15 am 01:15 Partly Cloudy 42 5.6 40 4.4 92 92 Calm 30.24 1024 10 16.0934 0 0
1:35 am 01:35 Clear 41 4.9 39 3.9 93 93 Calm 30.24 1024 10 16.0934 0 0
1:55 am 01:55 Clear 42 5.4 40 4.5 94 94 Calm 30.24 1024 10 16.0934 0 0
2:15 am 02:15 Clear 42 5.6 40 4.7 94 94 Calm 30.24 1024 10 16.0934 0 0
2:35 am 02:35 Clear 41 5.1 40 4.2 94 94 Calm 30.24 1024 10 16.0934 0 0
2:55 am 02:55 Clear 42 5.3 40 4.3 93 93 Calm 30.24 1024 10 16.0934 0 0
3:15 am 03:15 Clear 38 3.4 36 2.4 93 93 Calm 30.27 1025 10 16.0934 0 0
3:35 am 03:35 Clear 37 3 36 2.2 95 95 Calm 30.24 1024 10 16.0934 0 0
3:55 am 03:55 Clear 38 3.5 37 2.7 95 95 Calm 30.24 1024 10 16.0934 0 0
4:15 am 04:15 Clear 37 2.5 35 1.8 95 95 Calm 30.27 1025 7 11.26538 0 0
4:35 am 04:35 Clear 38 3.3 37 2.8 97 97 Calm 30.27 1025 10 16.0934 0 0
4:55 am 04:55 Clear 36 2.4 35 1.7 95 95 Calm 30.27 1025 7 11.26538 0 0
5:15 am 05:15 Clear 35 1.5 33 0.8 95 95 Calm 30.27 1025 7 11.26538 0 0
5:35 am 05:35 Clear with Mist and Fog 37 2.9 36 2.2 95 95 Calm 30.27 1025 5 8.0467 0 0
5:55 am 05:55 Clear 37 2.5 35 1.9 96 96 Calm 30.27 1025 10 16.0934 0 0
6:15 am 06:15 Clear 37 2.5 35 1.8 95 95 Calm 30.27 1025 7 11.26538 0 0
6:35 am 06:35 Mostly Cloudy 37 2.8 36 2.2 96 96 Calm 30.27 1025 10 16.0934 0 0
6:55 am 06:55 Cloudy 37 2.8 36 2.1 95 95 Calm 30.27 1025 10 16.0934 0 0
7:15 am 07:15 Mostly Cloudy 37 2.6 35 1.9 95 95 Calm 30.27 1025 10 16.0934 0 0
7:35 am 07:35 Sunny 38 3.3 37 2.7 96 96 Calm 30.27 1025 10 16.0934 0 0
7:55 am 07:55 Sunny 39 4 38 3.3 95 95 Calm 30.27 1025 10 16.0934 0 0
8:15 am 08:15 Sunny 42 5.7 41 5.1 96 96 Calm 30.24 1024 7 11.26538 0 0
8:35 am 08:35 Sunny 43 6.2 42 5.5 95 95 SE 6 9 30.24 1024 10 16.0934 0 0
8:55 am 08:55 Cloudy with Fog 43 6.2 42 5.5 95 95 Calm 30.24 1024 0.5 0.80467 0 0
9:15 am 09:15 Cloudy with Mist and Fog 44 6.4 42 5.8 96 96 SE 5 7 30.24 1024 1.25 2.011675 0 0
9:35 am 09:35 Cloudy with Fog 44 6.7 43 6.1 96 96 SSE 6 9 30.27 1025 0.5 0.80467 0 0
9:55 am 09:55 Cloudy 47 8.3 46 7.6 95 95 SSE 7 11 30.21 1023 10 16.0934 0 0
10:15 am 10:15 Cloudy 48 8.9 45 7.1 89 89 S 7 11 30.21 1023 10 16.0934 0 0
10:35 am 10:35 Mostly Cloudy 49 9.4 45 7.4 87 87 S 7 11 30.24 1024 10 16.0934 0 0
10:55 am 10:55 Cloudy 49 9.3 45 7 86 86 SSE 6 9 30.21 1023 10 16.0934 0 0
11:15 am 11:15 Cloudy 50 9.8 45 7.4 85 85 S 7 11 30.21 1023 10 16.0934 0 0
11:35 am 11:35 Partly Cloudy 50 10 45 7.2 83 83 S 6 9 30.21 1023 10 16.0934 0 0
11:55 am 11:55 Mostly Cloudy 51 10.5 45 7.1 80 80 SSW 7 11 30.21 1023 10 16.0934 0 0
12:15 pm 12:15 Mostly Cloudy 51 10.7 45 7 78 78 S 7 11 30.21 1023 10 16.0934 0 0
12:35 pm 12:35 Mostly Cloudy 52 11.1 45 7 76 76 S 9 15 30.18 1022 10 16.0934 0 0
12:55 pm 12:55 Cloudy 53 11.4 44 6.7 73 73 SW 5 7 30.18 1022 10 16.0934 0 0
1:15 pm 13:15 Mostly Cloudy 54 12.1 44 6.9 71 71 WSW 6 9 30.15 1021 10 16.0934 0 0
1:35 pm 13:35 Mostly Cloudy 55 12.5 44 6.7 68 68 SW 5 7 30.15 1021 10 16.0934 0 0
1:55 pm 13:55 Cloudy 54 12.1 44 6.4 68 68 SW 6 9 30.15 1021 10 16.0934 0 0
2:15 pm 14:15 Mostly Cloudy 53 11.9 42 5.7 66 66 SW 7 11 30.15 1021 10 16.0934 0 0
2:35 pm 14:35 Mostly Cloudy 54 12.1 43 6 67 67 SW 5 7 30.15 1021 10 16.0934 0 0
2:55 pm 14:55 Cloudy with Rain 53 11.7 44 6.5 71 71 SSW 6 9 30.15 1021 10 16.0934 0 0
3:15 pm 15:15 Cloudy with Light Drizzle 52 11.2 44 6.5 73 73 SSW 6 9 30.15 1021 10 16.0934 0 0
3:35 pm 15:35 Cloudy with Light Drizzle 52 11.3 44 6.8 74 74 SW 5 7 30.15 1021 10 16.0934 0 0
3:55 pm 15:55 Cloudy 52 11.1 45 7.1 77 77 SW 3 6 30.12 1020 10 16.0934 0 0
4:15 pm 16:15 Cloudy 52 11 45 7.2 78 78 SSW 6 9 30.12 1020 10 16.0934 0 0
4:35 pm 16:35 Cloudy 51 10.8 46 7.5 80 80 SW 6 9 30.12 1020 10 16.0934 0 0
4:55 pm 16:55 Cloudy with Light Drizzle 51 10.5 45 7.2 80 80 SSW 7 11 30.12 1020 10 16.0934 0 0
5:15 pm 17:15 Cloudy with Light Drizzle 50 10 46 7.5 85 85 SSW 9 15 30.15 1021 10 16.0934 0 0
5:35 pm 17:35 Cloudy with Light Drizzle 50 10 46 7.5 85 85 SSW 9 15 30.15 1021 10 16.0934 0 0
5:55 pm 17:55 Cloudy 49 9.6 46 7.6 87 87 SSW 9 15 30.15 1021 10 16.0934 0 0
6:15 pm 18:15 Cloudy with Light Drizzle 49 9.5 45 7.2 86 86 SSW 9 15 30.15 1021 10 16.0934 0 0
6:35 pm 18:35 Cloudy with Light Drizzle 49 9.2 45 7.1 87 87 SSW 8 13 30.15 1021 10 16.0934 0 0
6:55 pm 18:55 Cloudy with Rain 48 9 45 7 87 87 SSW 7 11 30.15 1021 10 16.0934 0 0
7:15 pm 19:15 Cloudy with Light Rain 48 8.8 45 7.2 90 90 S 6 9 30.15 1021 10 16.0934 0.01 0.254
7:35 pm 19:35 Cloudy with Rain 47 8.5 45 7 90 90 SSW 3 6 30.15 1021 7 11.26538 0.04 1.016
7:55 pm 19:55 Cloudy with Light Rain 47 8.3 45 7 92 92 Calm 30.15 1021 5 8.0467 0.07 1.778
8:15 pm 20:15 Cloudy with Drizzle 47 8.2 45 7.1 93 93 Calm 30.15 1021 10 16.0934 0.01 0.254
8:35 pm 20:35 Cloudy 47 8.2 45 7.1 93 93 Calm 30.15 1021 10 16.0934 0.01 0.254
8:55 pm 20:55 Cloudy with Light Drizzle 47 8.2 45 7.1 93 93 Calm 30.15 1021 10 16.0934 0.01 0.254
9:15 pm 21:15 Cloudy 46 8 44 6.8 92 92 Calm 30.15 1021 10 16.0934 0 0
9:35 pm 21:35 Cloudy with Drizzle 46 8 44 6.8 92 92 Calm 30.15 1021 10 16.0934 0 0
9:55 pm 21:55 Cloudy 46 7.7 44 6.8 94 94 Calm 30.15 1021 10 16.0934 0 0
10:15 pm 22:15 Cloudy 46 7.5 44 6.6 94 94 Calm 30.15 1021 10 16.0934 0 0
10:35 pm 22:35 Cloudy 45 7.3 44 6.5 95 95 Calm 30.15 1021 10 16.0934 0 0
10:55 pm 22:55 Mostly Cloudy with Mist and Fog 44 6.9 43 6.1 95 95 Calm 30.18 1022 5 8.0467 0 0
11:15 pm 23:15 Partly Cloudy 45 7.2 44 6.6 96 96 Calm 30.12 1020 7 11.26538 0 0
11:35 pm 23:35 Cloudy with Mist and Fog 45 7 44 6.5 97 97 Calm 30.12 1020 1 1.60934 0 0
11:55 pm 23:55 Mostly Cloudy with Mist and Fog 45 7 43 6.3 95 95 Calm 30.12 1020 1.25 2.011675 0 0

Powered by AerisWeather